User: anonymous   Login
Location: Unspecified
(0.0000°N, 0.0000°E)
Time: 08:55:04
(UTC+00:00)
Language:

O3B FM14 - Orbit

View from above orbital plane
View from above orbital plane
View from above satellite
View from above satellite

Ground track
Ground track

The orbit is defined by the following mean orbital elements,

1 43233U          26145.39842719 +.00000000 +00000-0 +00000-0 0 00009
2 43233   0.0486   8.4640 0002880  55.9511 295.6141  5.00115729    09
Epoch (UTC): 25 May 2026 09:33:44
Eccentricity: 0.0002880
inclination: 0.0486°
perigee height: 8062 km
apogee height: 8070 km
right ascension of ascending node: 8.4640°
argument of perigee: 55.9511°
revolutions per day: 5.00115729
mean anomaly at epoch: 295.6141°

The dashed part of the orbit path shows where the satellite is in the earth's shadow,  

DLR